Date String (YYYY-MM-DD hh:mm:ss) UTC,Instrument flags,absolute air pressure of the measurement (hPa),sample flow rate (lpm),inlet stack bypass flow (lpm),air temperature of the measurement (°C),ambient temperature measured by the external sensor (°C),aerosol sample conditioner tube jacket temperature (°C),OPC LED temperature (°C),internal box temperature (°C),relative humidity of the measurement (%),span deviation,mass concentration of particles derived from Lorenz-Mie calculation of OPC scattering (μg/m³),mass concentration of particles derived from Lorenz-Mie calculation of OPC scattering (μg/m³),mass concentration of particles derived from Lorenz-Mie calculation of OPC scattering (μg/m³)
DateTimeUTC,F1_M11,P_M11,Q1_M11,Q2_M11,T1_M11,T2_M11,T3_M11,T4_M11,T5_M11,U1_M11,ZSPAN_M11,X2_M11,X0_M11,X1_M11
2023-06-25 20:00:00,SystemResetWarning,0833.7,5.01,000.00,029.3,027.8,000.0,037.8,030.9,31.8,0000.0,0004.30,0010.52,0003.51
2023-06-25 20:01:00,SystemResetWarning,0833.7,4.97,000.00,029.4,027.0,000.0,037.8,031.1,31.1,0000.0,0004.37,0011.00,0003.53
2023-06-25 20:02:00,SystemResetWarning,0833.7,5.01,000.00,029.4,025.3,000.0,037.7,031.0,30.4,0000.0,0004.43,0012.00,0003.54
2023-06-25 20:03:00,SystemResetWarning,0833.7,5.01,000.00,029.3,025.1,000.0,037.7,031.0,31.2,0000.0,0004.45,0012.34,0003.54
2023-06-25 20:04:00,SystemResetWarning,0833.7,5.00,000.00,029.3,025.5,000.0,037.7,030.7,30.7,0000.0,0004.41,0012.26,0003.54
2023-06-25 20:05:00,SystemResetWarning,0833.7,5.00,000.00,029.2,025.9,000.0,037.7,030.6,30.5,0000.0,0004.43,0013.08,0003.54
2023-06-25 20:06:00,SystemResetWarning,0833.7,5.00,000.00,029.2,026.3,000.0,037.7,030.7,29.5,0000.0,0004.46,0013.25,0003.54
2023-06-25 20:07:00,SystemResetWarning,0833.7,5.00,000.00,029.2,026.7,000.0,037.7,030.8,28.7,0000.0,0004.48,0013.90,0003.52
2023-06-25 20:08:00,SystemResetWarning,0833.7,5.00,000.00,029.3,027.1,000.0,037.7,030.8,29.6,0000.0,0004.47,0013.96,0003.52
2023-06-25 20:09:00,SystemResetWarning,0833.7,5.00,000.00,029.3,027.3,000.0,037.7,030.9,29.6,0000.0,0004.43,0014.07,0003.51
2023-06-25 20:10:00,SystemResetWarning,0833.7,5.00,000.00,029.3,027.6,000.0,037.8,030.9,29.1,0000.0,0004.38,0013.97,0003.52
2023-06-25 20:11:00,SystemResetWarning,0833.7,5.00,000.00,029.4,027.7,000.0,037.8,031.0,29.2,0000.0,0004.36,0013.84,0003.52
2023-06-25 20:12:00,SystemResetWarning,0833.6,4.98,000.00,029.4,026.3,000.0,037.7,031.1,28.8,0000.0,0004.32,0013.43,0003.53
2023-06-25 20:13:00,SystemResetWarning,0833.5,5.01,000.00,029.4,025.1,000.0,037.7,031.0,28.8,0000.0,0004.30,0012.48,0003.53
2023-06-25 20:14:00,SystemResetWarning,0833.5,5.01,000.00,029.3,025.2,000.0,037.7,030.9,28.8,0000.0,0004.31,0012.27,0003.54
2023-06-25 20:15:00,SystemResetWarning,0833.6,5.00,000.00,029.2,025.6,000.0,037.7,030.6,29.6,0000.0,0004.37,0012.73,0003.55
2023-06-25 20:16:00,SystemResetWarning,0833.6,5.00,000.00,029.2,026.0,000.0,037.7,030.6,29.3,0000.0,0004.41,0012.06,0003.56
2023-06-25 20:17:00,SystemResetWarning,0833.6,5.01,000.00,029.2,026.4,000.0,037.7,030.7,28.2,0000.0,0004.38,0011.69,0003.58
2023-06-25 20:18:00,SystemResetWarning,0833.6,5.01,000.00,029.2,026.8,000.0,037.7,030.8,27.8,0000.0,0004.35,0011.14,0003.59
2023-06-25 20:19:00,SystemResetWarning,0833.6,4.99,000.00,029.3,027.1,000.0,037.7,030.8,28.2,0000.0,0004.34,0010.67,0003.62
2023-06-25 20:20:00,SystemResetWarning,0833.6,5.00,000.00,029.3,027.4,000.0,037.8,030.9,27.9,0000.0,0004.38,0010.60,0003.64
2023-06-25 20:21:00,SystemResetWarning,0833.6,5.00,000.00,029.3,027.6,000.0,037.8,031.0,28.1,0000.0,0004.39,0010.73,0003.65
2023-06-25 20:22:00,SystemResetWarning,0833.6,5.00,000.00,029.4,027.4,000.0,037.8,031.0,27.4,0000.0,0004.38,0010.65,0003.66
2023-06-25 20:23:00,SystemResetWarning,0833.5,4.99,000.00,029.4,025.7,000.0,037.7,031.0,26.9,0000.0,0004.38,0010.87,0003.68
2023-06-25 20:24:00,SystemResetWarning,0833.4,5.02,000.00,029.4,025.1,000.0,037.7,031.0,28.3,0000.0,0004.39,0010.87,0003.68
2023-06-25 20:25:00,SystemResetWarning,0833.4,5.00,000.00,029.3,025.3,000.0,037.7,030.7,28.3,0000.0,0004.42,0010.20,0003.69
2023-06-25 20:26:00,SystemResetWarning,0833.4,5.00,000.00,029.2,025.7,000.0,037.7,030.6,28.6,0000.0,0004.41,0009.63,0003.71
2023-06-25 20:27:00,SystemResetWarning,0833.4,5.00,000.00,029.2,026.2,000.0,037.7,030.6,28.5,0000.0,0004.41,0009.89,0003.74
2023-06-25 20:28:00,SystemResetWarning,0833.4,5.00,000.00,029.2,026.6,000.0,037.7,030.7,28.1,0000.0,0004.46,0010.31,0003.78
2023-06-25 20:29:00,SystemResetWarning,0833.4,4.98,000.00,029.2,026.9,000.0,037.7,030.8,27.5,0000.0,0004.54,0010.52,0003.80
2023-06-25 20:30:00,SystemResetWarning,0833.4,5.01,000.00,029.3,027.2,000.0,037.7,030.8,27.1,0000.0,0004.58,0010.43,0003.81
2023-06-25 20:31:00,SystemResetWarning,0833.4,5.01,000.00,029.3,027.5,000.0,037.8,030.9,26.4,0000.0,0004.55,0010.05,0003.80
2023-06-25 20:32:00,SystemResetWarning,0833.4,4.99,000.00,029.3,027.7,000.0,037.8,031.0,27.1,0000.0,0004.56,0009.83,0003.82
2023-06-25 20:33:00,SystemResetWarning,0833.4,4.99,000.00,029.4,027.0,000.0,037.8,031.1,27.5,0000.0,0004.61,0010.46,0003.83
2023-06-25 20:34:00,SystemResetWarning,0833.4,5.01,000.00,029.4,025.4,000.0,037.7,030.9,27.9,0000.0,0004.62,0010.37,0003.83
2023-06-25 20:35:00,SystemResetWarning,0833.5,5.00,000.00,029.3,025.2,000.0,037.7,030.9,28.6,0000.0,0004.57,0010.26,0003.83
2023-06-25 20:36:00,SystemResetWarning,0833.4,5.01,000.00,029.2,025.5,000.0,037.7,030.6,28.0,0000.0,0004.58,0010.50,0003.84
2023-06-25 20:37:00,SystemResetWarning,0833.4,5.00,000.00,029.2,025.9,000.0,037.7,030.6,27.7,0000.0,0004.55,0010.50,0003.85
2023-06-25 20:38:00,SystemResetWarning,0833.4,5.00,000.00,029.2,026.4,000.0,037.7,030.6,27.2,0000.0,0004.54,0010.31,0003.85
2023-06-25 20:39:00,SystemResetWarning,0833.4,4.99,000.00,029.2,026.8,000.0,037.7,030.7,27.3,0000.0,0004.52,0010.77,0003.83
2023-06-25 20:40:00,SystemResetWarning,0833.4,5.00,000.00,029.2,027.1,000.0,037.7,030.8,27.8,0000.0,0004.46,0010.86,0003.80
2023-06-25 20:41:00,SystemResetWarning,0833.4,4.99,000.00,029.3,027.4,000.0,037.7,030.9,27.0,0000.0,0004.44,0011.55,0003.80
2023-06-25 20:42:00,SystemResetWarning,0833.4,5.00,000.00,029.3,027.6,000.0,037.8,031.0,27.3,0000.0,0004.48,0011.64,0003.81
2023-06-25 20:43:00,SystemResetWarning,0833.4,5.01,000.00,029.4,027.8,000.0,037.8,031.0,27.0,0000.0,0004.49,0011.43,0003.81
2023-06-25 20:44:00,SystemResetWarning,0833.4,4.99,000.00,029.4,026.3,000.0,037.7,031.1,28.7,0000.0,0004.48,0011.05,0003.81
2023-06-25 20:45:00,SystemResetWarning,0833.3,5.02,000.00,029.4,025.2,000.0,037.7,031.0,27.4,0000.0,0004.52,0011.24,0003.82
2023-06-25 20:46:00,SystemResetWarning,0833.3,5.00,000.00,029.3,025.3,000.0,037.7,030.8,28.4,0000.0,0004.57,0011.39,0003.82
2023-06-25 20:47:00,SystemResetWarning,0833.3,5.00,000.00,029.2,025.6,000.0,037.7,030.6,28.8,0000.0,0004.55,0011.63,0003.81
2023-06-25 20:48:00,SystemResetWarning,0833.3,5.01,000.00,029.2,026.1,000.0,037.7,030.6,28.9,0000.0,0004.57,0012.14,0003.80
2023-06-25 20:49:00,SystemResetWarning,0833.3,4.99,000.00,029.2,026.5,000.0,037.7,030.7,29.0,0000.0,0004.61,0012.18,0003.80
2023-06-25 20:50:00,SystemResetWarning,0833.3,5.00,000.00,029.3,026.9,000.0,037.7,030.8,28.0,0000.0,0004.60,0011.51,0003.80
2023-06-25 20:51:00,SystemResetWarning,0833.3,4.99,000.00,029.3,027.2,000.0,037.7,030.9,28.5,0000.0,0004.62,0011.34,0003.82
2023-06-25 20:52:00,SystemResetWarning,0833.3,5.00,000.00,029.3,027.5,000.0,037.8,030.9,28.2,0000.0,0004.62,0010.84,0003.83
2023-06-25 20:53:00,SystemResetWarning,0833.3,5.01,000.00,029.3,027.7,000.0,037.8,031.0,28.8,0000.0,0004.60,0010.60,0003.82
2023-06-25 20:54:00,SystemResetWarning,0833.2,4.99,000.00,029.4,027.5,000.0,037.8,031.1,29.1,0000.0,0004.60,0010.62,0003.81
2023-06-25 20:55:00,SystemResetWarning,0833.2,5.00,000.00,029.4,025.7,000.0,037.7,030.9,28.3,0000.0,0004.57,0010.57,0003.79
2023-06-25 20:56:00,SystemResetWarning,0833.2,5.00,000.00,029.3,024.3,000.0,037.7,030.9,29.0,0000.0,0004.54,0010.11,0003.77
2023-06-25 20:57:00,SystemResetWarning,0833.2,5.01,000.00,029.3,024.3,000.0,037.6,030.7,30.1,0000.0,0004.51,0010.65,0003.75
2023-06-25 20:58:00,SystemResetWarning,0833.2,5.01,000.00,029.2,024.7,000.0,037.6,030.5,30.4,0000.0,0004.50,0010.67,0003.74
2023-06-25 20:59:00,SystemResetWarning,0833.2,5.00,000.00,029.1,025.3,000.0,037.6,030.4,30.0,0000.0,0004.49,0009.91,0003.72
